Total_Precipitation_Accumulation
0.00 0.00 0.00 0.00 0.00 0.00 0.00 0.00 0.00 0.00 0.01 0.00 0.00 0.01 0.02 0.02 0.05 0.04 0.06 0.08 0.03 0.01 0.03 0.06 0.16 0.16 0.13 0.10 0.21 0.52 0.99 1.42 0.78 0.48 0.36 0.50 0.53 0.62 0.67 1.29 1.43 1.66 1.23 1.23
0.02 0.01 0.00 0.00 0.00 0.00 0.00 0.00 0.00 0.00 0.00 0.00 0.00 0.00 0.00 0.05 0.02 0.01 0.01 0.12 0.04 0.02 0.05 0.03 0.07 0.06 0.08 0.15 0.46 0.53 0.61 0.78 0.69 0.51 0.42 0.35 0.39 0.61 0.53 0.75 1.09 1.53 1.68 1.44
0.02 0.01 0.00 0.01 0.00 0.00 0.00 0.00 0.00 0.00 0.00 0.00 0.00 0.00 0.00 0.02 0.05 0.08 0.04 0.03 0.01 0.01 0.02 0.03 0.03 0.04 0.04 0.05 0.25 0.34 0.46 0.58 0.57 0.57 0.69 0.65 0.75 0.82 0.90 0.68 0.72 0.92 1.38 1.61
0.07 0.00 0.02 0.00 0.00 0.01 0.00 0.00 0.00 0.00 0.00 0.00 0.00 0.01 0.03 0.05 0.04 0.02 0.08 0.06 0.03 0.03 0.02 0.00 0.00 0.01 0.02 0.13 0.48 0.42 0.45 0.50 0.51 0.53 0.59 0.62 0.73 0.56 0.48 0.54 0.53 0.75 0.73 1.13
0.10 0.03 0.04 0.02 0.01 0.01 0.02 0.00 0.00 0.00 0.00 0.06 0.03 0.02 0.03 0.07 0.05 0.00 0.08 0.15 0.12 0.05 0.03 0.02 0.02 0.02 0.04 0.18 0.50 0.52 0.64 0.72 0.63 0.62 0.64 0.61 0.60 0.54 0.56 0.62 0.68 0.77 0.87 0.81
0.02 0.02 0.07 0.06 0.01 0.00 0.00 0.02 0.00 0.00 0.04 0.15 0.02 0.01 0.02 0.06 0.05 0.07 0.17 0.17 0.16 0.09 0.10 0.07 0.09 0.12 0.11 0.22 0.54 0.72 0.75 0.67 0.62 0.77 0.83 0.62 0.58 0.60 0.75 0.82 0.82 0.88 0.92 1.04
0.01 0.04 0.06 0.11 0.16 0.03 0.03 0.14 0.26 0.25 0.17 0.11 0.05 0.08 0.18 0.09 0.16 0.28 0.32 0.14 0.09 0.07 0.15 0.41 0.28 0.21 0.22 0.24 0.40 0.75 0.89 0.98 0.81 0.95 0.99 0.98 1.02 1.14 1.07 1.04 1.11 1.16 1.12 1.32
0.11 0.16 0.18 0.23 0.41 0.39 0.07 0.23 0.56 0.65 0.26 0.18 0.26 0.32 0.43 0.40 0.40 0.45 0.33 0.24 0.22 0.25 0.30 0.47 0.83 0.36 0.31 0.49 0.48 0.75 1.43 1.72 1.71 1.52 1.35 1.32 1.18 1.17 1.26 1.24 1.31 1.37 1.38 1.46
0.24 0.22 0.12 0.22 0.29 0.27 0.21 0.29 0.23 0.88 0.44 0.31 0.21 0.31 0.78 1.09 0.81 1.23 1.34 0.82 0.69 0.60 0.59 0.58 0.57 0.79 0.58 0.58 0.75 1.06 1.33 1.47 1.81 1.46 1.13 1.20 1.18 1.23 1.34 1.31 1.22 1.13 1.11 1.18
0.13 0.29 0.09 0.06 0.14 0.14 0.22 0.27 0.67 1.28 1.19 0.58 0.40 0.39 0.68 0.76 0.79 0.83 0.70 0.53 0.41 0.33 0.28 0.37 0.45 0.88 1.70 1.61 1.32 1.73 1.98 1.65 1.69 1.72 1.56 1.34 1.25 1.08 1.04 0.94 0.89 0.89 0.84 0.83
0.12 0.31 0.20 0.22 0.40 0.34 0.23 0.47 0.56 0.79 0.79 0.96 0.80 1.16 1.37 0.95 1.09 0.77 0.28 0.22 0.23 0.26 0.28 0.26 0.24 0.36 0.58 1.81 2.27 1.94 2.33 2.60 2.51 2.20 2.04 1.87 1.71 1.93 1.84 1.47 1.38 1.29 1.14 0.97
0.35 0.37 0.22 0.19 0.31 0.25 0.32 0.51 0.84 1.50 0.96 0.78 1.09 1.66 1.29 1.20 0.74 0.89 0.57 0.38 0.18 0.21 0.32 0.28 0.25 0.29 0.30 0.50 1.17 2.03 2.32 2.33 2.22 2.19 2.85 3.28 2.90 2.51 2.53 2.41 2.12 2.19 1.97 1.71
0.73 1.04 0.80 0.44 0.48 0.41 0.42 0.53 0.74 1.12 1.66 1.40 1.54 1.49 1.23 1.14 1.24 1.25 0.82 0.50 0.28 0.36 0.50 0.47 0.41 0.47 0.47 0.46 0.49 0.79 1.45 2.15 2.78 3.16 2.98 3.64 3.77 3.70 2.91 2.59 2.53 2.27 2.06 2.32
1.09 1.22 1.08 0.90 0.93 0.86 0.77 0.51 0.55 1.67 2.73 1.87 0.96 0.78 1.50 1.67 1.97 1.15 0.71 0.76 0.62 0.61 0.67 0.61 0.70 0.94 0.98 0.95 0.90 0.85 1.06 1.57 2.40 3.23 3.98 4.25 4.37 4.74 4.83 4.29 3.16 2.35 2.08 1.85
1.33 1.72 1.06 0.70 0.33 0.47 0.79 0.68 0.54 1.19 1.57 2.18 1.23 1.20 1.34 1.49 1.99 1.74 1.13 0.98 0.85 0.81 0.72 0.72 0.81 1.04 1.12 1.26 1.11 1.07 1.16 1.30 1.60 1.99 2.08 2.47 3.25 3.85 4.64 4.13 4.32 4.11 3.47 3.42
1.56 2.04 1.52 1.23 0.75 0.92 0.88 0.52 0.44 0.62 0.94 1.07 0.91 1.23 1.34 0.98 1.14 1.41 1.26 1.21 1.13 0.98 0.94 0.80 0.80 0.85 0.87 1.04 1.15 1.11 1.29 1.53 1.55 1.64 1.89 2.43 2.16 2.42 2.34 2.94 3.01 3.20 3.04 3.26
1.58 1.75 1.92 1.87 0.92 1.30 2.11 0.81 0.53 0.66 1.13 1.28 1.79 1.62 1.31 0.96 1.14 1.22 1.36 1.20 1.47 1.24 1.01 0.95 0.84 0.88 0.91 1.00 1.16 1.33 1.63 2.01 2.22 2.33 2.41 2.52 2.66 2.53 2.22 2.02 2.37 2.65 2.83 2.51
1.51 1.66 2.32 2.03 1.43 2.95 1.47 0.30 0.54 0.79 0.75 0.96 1.10 1.25 1.57 1.28 1.09 0.84 0.97 1.28 1.64 1.95 1.26 1.01 1.02 0.92 1.00 1.04 0.98 1.22 1.46 1.75 2.16 2.73 2.97 3.12 3.14 3.05 2.61 2.46 2.26 2.33 2.56 2.62
0.65 1.31 2.66 2.48 1.91 1.35 0.79 0.72 0.82 0.88 0.83 0.64 0.71 1.02 1.34 1.08 0.66 0.60 0.71 0.96 1.32 1.74 1.91 1.41 1.18 1.10 1.04 1.03 1.19 1.19 1.35 1.54 1.76 2.21 2.85 3.30 3.20 3.19 2.76 2.47 2.82 2.56 2.42 2.38
0.50 0.94 2.65 2.98 2.73 1.88 1.12 0.37 0.33 0.74 1.30 0.61 0.46 0.72 1.01 1.19 1.29 1.27 1.10 0.89 0.89 1.11 1.35 1.73 1.46 0.93 0.80 0.85 0.85 1.06 1.16 1.24 1.73 2.20 2.32 2.62 2.92 3.02 3.56 3.57 3.30 3.35 3.05 2.81
1.11 1.74 2.36 2.14 3.15 1.72 0.49 0.44 0.46 1.17 1.53 0.61 0.47 0.62 1.04 1.53 1.68 1.75 1.37 1.23 1.05 1.05 0.99 0.94 1.21 1.31 0.99 0.81 0.74 0.77 1.03 1.30 1.59 1.72 2.17 2.33 2.44 2.68 2.84 3.12 3.30 3.14 3.15 2.85
1.02 2.03 2.40 2.43 3.09 2.19 0.59 0.72 1.03 1.31 0.80 0.51 0.49 0.73 0.84 1.47 1.63 1.61 1.28 1.02 0.79 0.71 0.57 0.45 0.44 0.61 0.89 0.85 0.78 0.75 0.72 0.97 0.98 1.20 1.42 1.58 2.10 2.38 2.61 2.55 2.81 2.92 3.03 3.01
1.88 1.61 1.94 1.74 1.47 0.92 0.63 0.76 0.61 0.51 0.43 0.54 0.65 1.11 1.01 1.21 1.61 1.65 1.27 0.93 0.73 0.57 0.43 0.31 0.25 0.29 0.35 0.37 0.51 0.72 0.88 0.72 0.78 0.76 0.86 1.15 1.14 1.48 1.92 2.22 2.53 2.66 2.57 2.44
1.02 0.75 1.32 1.21 0.69 0.48 0.63 0.42 0.34 0.30 0.35 0.43 0.81 1.17 1.61 1.54 1.49 1.29 0.91 0.67 0.50 0.38 0.32 0.25 0.31 0.29 0.26 0.24 0.31 0.44 0.56 0.67 0.73 0.78 0.75 0.80 0.96 1.11 1.09 1.30 1.68 1.99 2.37 2.54
1.26 1.00 0.93 1.06 1.08 0.75 0.53 0.54 0.63 0.53 0.39 0.41 0.55 0.72 0.73 0.69 0.68 0.60 0.52 0.44 0.35 0.30 0.26 0.17 0.17 0.21 0.22 0.15 0.20 0.29 0.32 0.33 0.40 0.45 0.54 0.62 0.72 0.86 0.87 1.06 1.18 1.23 1.65 1.91
1.20 1.48 1.18 1.39 1.70 1.46 0.94 0.57 0.57 0.62 0.64 0.51 0.46 0.62 0.64 0.45 0.51 0.45 0.48 0.44 0.42 0.42 0.31 0.22 0.17 0.15 0.18 0.21 0.28 0.32 0.33 0.36 0.44 0.52 0.56 0.72 0.73 0.80 0.90 0.98 1.32 1.67 1.69 1.81